Time,TemperatureF,DewpointF,PressureIn,WindDirection,WindDirectionDegrees,WindSpeedMPH,WindSpeedGustMPH,Humidity,HourlyPrecipIn,Conditions,Clouds,dailyrainin,SoftwareType,DateUTC
2013-02-09 00:01:00,26.0,25.0,-100.00,NNW,327,0.0,0.0,94,-99.99,,,-99.99,,2013-02-09 07:01:00,
2013-02-09 00:11:00,26.0,25.0,-100.00,NNW,327,0.0,0.0,94,-99.99,,,-99.99,,2013-02-09 07:11:00,
2013-02-09 00:21:00,26.0,25.0,-100.00,NNW,327,0.0,0.0,94,-99.99,,,-99.99,,2013-02-09 07:21:00,
2013-02-09 00:31:00,26.0,25.0,-100.00,NNW,327,0.0,0.0,94,-99.99,,,-99.99,,2013-02-09 07:31:00,
2013-02-09 00:42:00,26.0,25.0,-100.00,NNW,327,0.0,0.0,94,-99.99,,,-99.99,,2013-02-09 07:42:00,
2013-02-09 00:52:00,26.0,25.0,-100.00,NNW,327,0.0,0.0,94,-99.99,,,-99.99,,2013-02-09 07:52:00,
2013-02-09 01:01:00,25.0,24.0,-100.00,NNW,327,0.0,0.0,95,-99.99,,,-99.99,,2013-02-09 08:01:00,
2013-02-09 01:11:00,25.0,24.0,-100.00,NNW,327,0.0,0.0,95,-99.99,,,-99.99,,2013-02-09 08:11:00,
2013-02-09 01:21:00,26.0,25.0,-100.00,NNW,327,0.0,0.0,95,-99.99,,,-99.99,,2013-02-09 08:21:00,
2013-02-09 01:31:00,25.0,24.0,-100.00,NNW,327,0.0,0.0,95,-99.99,,,-99.99,,2013-02-09 08:31:00,
2013-02-09 01:42:00,25.0,24.0,-100.00,NNW,327,0.0,0.0,95,-99.99,,,-99.99,,2013-02-09 08:42:00,
2013-02-09 01:52:00,25.0,24.0,-100.00,NNW,327,0.0,0.0,95,-99.99,,,-99.99,,2013-02-09 08:52:00,
2013-02-09 02:03:00,24.0,23.0,-100.00,NNW,327,0.0,0.0,96,-99.99,,,-99.99,,2013-02-09 09:03:00,
2013-02-09 02:11:00,24.0,23.0,-100.00,NNW,327,0.0,0.0,96,-99.99,,,-99.99,,2013-02-09 09:11:00,
2013-02-09 02:21:00,24.0,23.0,-100.00,NNW,327,0.0,0.0,96,-99.99,,,-99.99,,2013-02-09 09:21:00,
2013-02-09 02:31:00,24.0,23.0,-100.00,WSW,244,0.0,2.0,96,-99.99,,,-99.99,,2013-02-09 09:31:00,
2013-02-09 02:41:00,24.0,23.0,-100.00,WSW,244,0.0,2.0,96,-99.99,,,-99.99,,2013-02-09 09:41:00,
2013-02-09 02:52:00,24.0,23.0,-100.00,West,274,2.0,5.0,96,-99.99,,,-99.99,,2013-02-09 09:52:00,
2013-02-09 03:01:00,24.0,23.0,-100.00,WNW,289,0.0,0.0,96,-99.99,,,-99.99,,2013-02-09 10:01:00,
2013-02-09 03:11:00,24.0,23.0,-100.00,WNW,289,0.0,0.0,96,-99.99,,,-99.99,,2013-02-09 10:11:00,
2013-02-09 03:21:00,24.0,23.0,-100.00,WNW,289,0.0,0.0,96,-99.99,,,-99.99,,2013-02-09 10:21:00,
2013-02-09 03:31:00,25.0,24.0,-100.00,WSW,254,0.0,0.0,96,-99.99,,,-99.99,,2013-02-09 10:31:00,
2013-02-09 03:41:00,25.0,24.0,-100.00,WSW,254,0.0,0.0,96,-99.99,,,-99.99,,2013-02-09 10:41:00,
2013-02-09 03:51:00,25.0,24.0,-100.00,WSW,254,0.0,0.0,96,-99.99,,,-99.99,,2013-02-09 10:51:00,
2013-02-09 04:01:00,24.0,23.0,-100.00,WSW,254,0.0,0.0,95,-99.99,,,-99.99,,2013-02-09 11:01:00,
2013-02-09 04:11:00,24.0,23.0,-100.00,WSW,254,0.0,0.0,95,-99.99,,,-99.99,,2013-02-09 11:11:00,
2013-02-09 04:22:00,24.0,23.0,-100.00,WSW,254,0.0,0.0,97,-99.99,,,-99.99,,2013-02-09 11:22:00,
2013-02-09 04:31:00,24.0,23.0,-100.00,WSW,254,0.0,0.0,97,-99.99,,,-99.99,,2013-02-09 11:31:00,
2013-02-09 04:41:00,24.0,23.0,-100.00,WSW,254,0.0,0.0,97,-99.99,,,-99.99,,2013-02-09 11:41:00,
2013-02-09 04:52:00,22.0,21.0,-100.00,WNW,300,6.0,8.0,97,-99.99,,,-99.99,,2013-02-09 11:52:00,
2013-02-09 05:02:00,22.0,21.0,-100.00,WNW,300,6.0,8.0,97,-99.99,,,-99.99,,2013-02-09 12:02:00,
2013-02-09 05:11:00,22.0,21.0,-100.00,WNW,300,6.0,8.0,97,-99.99,,,-99.99,,2013-02-09 12:11:00,
2013-02-09 05:21:00,22.0,21.0,-100.00,WNW,300,6.0,8.0,97,-99.99,,,-99.99,,2013-02-09 12:21:00,
2013-02-09 05:32:00,22.0,21.0,-100.00,WNW,300,6.0,8.0,97,-99.99,,,-99.99,,2013-02-09 12:32:00,
2013-02-09 06:52:00,23.0,22.0,-100.00,West,281,0.0,0.0,96,-99.99,,,-99.99,,2013-02-09 13:52:00,
2013-02-09 07:01:00,23.0,22.0,-100.00,West,281,0.0,0.0,96,-99.99,,,-99.99,,2013-02-09 14:01:00,
2013-02-09 07:11:00,23.0,22.0,-100.00,West,281,0.0,0.0,96,-99.99,,,-99.99,,2013-02-09 14:11:00,
2013-02-09 07:21:00,23.0,22.0,-100.00,West,281,0.0,0.0,97,-99.99,,,-99.99,,2013-02-09 14:21:00,
2013-02-09 07:31:00,23.0,22.0,-100.00,West,281,0.0,0.0,97,-99.99,,,-99.99,,2013-02-09 14:31:00,
2013-02-09 07:42:00,23.0,22.0,-100.00,West,281,0.0,0.0,97,-99.99,,,-99.99,,2013-02-09 14:42:00,
2013-02-09 07:52:00,23.0,22.0,-100.00,West,262,0.0,0.0,97,-99.99,,,-99.99,,2013-02-09 14:52:00,
2013-02-09 08:02:00,23.0,22.0,-100.00,West,262,0.0,0.0,97,-99.99,,,-99.99,,2013-02-09 15:02:00,
2013-02-09 08:11:00,23.0,22.0,-100.00,West,262,0.0,0.0,97,-99.99,,,-99.99,,2013-02-09 15:11:00,
2013-02-09 08:21:00,24.0,23.0,-100.00,West,275,2.0,2.0,95,-99.99,,,-99.99,,2013-02-09 15:21:00,
2013-02-09 08:32:00,24.0,23.0,-100.00,West,270,0.0,0.0,95,-99.99,,,-99.99,,2013-02-09 15:32:00,
2013-02-09 08:42:00,24.0,23.0,-100.00,West,270,0.0,0.0,95,-99.99,,,-99.99,,2013-02-09 15:42:00,
2013-02-09 08:52:00,25.0,23.0,-100.00,WSW,257,0.0,0.0,93,-99.99,,,-99.99,,2013-02-09 15:52:00,
2013-02-09 09:01:00,25.0,23.0,-100.00,WSW,257,0.0,0.0,93,-99.99,,,-99.99,,2013-02-09 16:01:00,
2013-02-09 09:11:00,25.0,23.0,-100.00,WSW,257,0.0,0.0,93,-99.99,,,-99.99,,2013-02-09 16:11:00,
2013-02-09 09:22:00,25.0,23.0,-100.00,WSW,257,0.0,0.0,93,-99.99,,,-99.99,,2013-02-09 16:22:00,
2013-02-09 09:31:00,28.0,26.0,-100.00,WSW,257,0.0,0.0,91,-99.99,,,-99.99,,2013-02-09 16:31:00,
2013-02-09 09:42:00,28.0,26.0,-100.00,WSW,257,0.0,0.0,91,-99.99,,,-99.99,,2013-02-09 16:42:00,
2013-02-09 09:52:00,28.0,26.0,-100.00,WSW,257,0.0,0.0,91,-99.99,,,-99.99,,2013-02-09 16:52:00,
2013-02-09 10:01:00,28.0,26.0,-100.00,WSW,257,0.0,0.0,91,-99.99,,,-99.99,,2013-02-09 17:01:00,
2013-02-09 10:11:00,28.0,26.0,-100.00,WSW,257,0.0,0.0,91,-99.99,,,-99.99,,2013-02-09 17:11:00,
2013-02-09 10:21:00,32.0,30.0,-100.00,SW,215,0.0,0.0,91,-99.99,,,-99.99,,2013-02-09 17:21:00,
2013-02-09 10:32:00,33.0,31.0,-100.00,SW,229,0.0,0.0,91,-99.99,,,-99.99,,2013-02-09 17:32:00,
2013-02-09 10:42:00,33.0,31.0,-100.00,SW,229,0.0,0.0,91,-99.99,,,-99.99,,2013-02-09 17:42:00,
2013-02-09 10:52:00,33.0,31.0,-100.00,SW,229,0.0,0.0,91,-99.99,,,-99.99,,2013-02-09 17:52:00,
2013-02-09 11:02:00,34.0,31.0,-100.00,SW,223,0.0,0.0,89,-99.99,,,-99.99,,2013-02-09 18:02:00,
2013-02-09 11:12:00,34.0,31.0,-100.00,SW,223,0.0,0.0,89,-99.99,,,-99.99,,2013-02-09 18:12:00,
2013-02-09 11:23:00,34.0,31.0,-100.00,SW,223,0.0,0.0,89,-99.99,,,-99.99,,2013-02-09 18:23:00,
2013-02-09 11:32:00,34.0,31.0,-100.00,SW,223,0.0,0.0,89,-99.99,,,-99.99,,2013-02-09 18:32:00,
2013-02-09 11:42:00,34.0,31.0,-100.00,SW,223,0.0,0.0,89,-99.99,,,-99.99,,2013-02-09 18:42:00,
2013-02-09 12:22:00,40.0,34.0,-100.00,SW,223,0.0,0.0,80,-99.99,,,-99.99,,2013-02-09 19:22:00,
2013-02-09 12:32:00,40.0,34.0,-100.00,SW,223,0.0,0.0,78,-99.99,,,-99.99,,2013-02-09 19:32:00,
2013-02-09 12:42:00,40.0,34.0,-100.00,SW,223,0.0,0.0,78,-99.99,,,-99.99,,2013-02-09 19:42:00,
2013-02-09 12:52:00,40.0,33.0,-100.00,SW,223,0.0,0.0,76,-99.99,,,-99.99,,2013-02-09 19:52:00,
2013-02-09 13:01:00,40.0,33.0,-100.00,SW,223,0.0,0.0,76,-99.99,,,-99.99,,2013-02-09 20:01:00,
2013-02-09 13:11:00,40.0,33.0,-100.00,SW,223,0.0,0.0,76,-99.99,,,-99.99,,2013-02-09 20:11:00,
2013-02-09 13:21:00,40.0,33.0,-100.00,SW,223,0.0,0.0,76,-99.99,,,-99.99,,2013-02-09 20:21:00,
2013-02-09 13:52:00,40.0,31.0,-100.00,SW,223,0.0,0.0,69,-99.99,,,-99.99,,2013-02-09 20:52:00,
2013-02-09 14:02:00,40.0,31.0,-100.00,SW,223,0.0,0.0,69,-99.99,,,-99.99,,2013-02-09 21:02:00,
2013-02-09 14:11:00,40.0,31.0,-100.00,SW,223,0.0,0.0,69,-99.99,,,-99.99,,2013-02-09 21:11:00,
2013-02-09 14:21:00,40.0,31.0,-100.00,SW,223,0.0,0.0,69,-99.99,,,-99.99,,2013-02-09 21:21:00,
2013-02-09 14:52:00,43.0,31.0,-100.00,NW,306,0.0,0.0,62,-99.99,,,-99.99,,2013-02-09 21:52:00,
2013-02-09 15:01:00,43.0,31.0,-100.00,NW,306,0.0,0.0,62,-99.99,,,-99.99,,2013-02-09 22:01:00,
2013-02-09 15:11:00,43.0,31.0,-100.00,NW,306,0.0,0.0,62,-99.99,,,-99.99,,2013-02-09 22:11:00,
2013-02-09 15:21:00,43.0,31.0,-100.00,NW,306,0.0,0.0,62,-99.99,,,-99.99,,2013-02-09 22:21:00,
2013-02-09 17:02:00,36.0,32.0,-100.00,ENE,64,0.0,3.0,85,-99.99,,,-99.99,,2013-02-10 00:02:00,
2013-02-09 17:22:00,35.0,31.0,-100.00,NNE,28,0.0,0.0,86,-99.99,,,-99.99,,2013-02-10 00:22:00,
2013-02-09 17:32:00,34.0,29.0,-100.00,ENE,71,0.0,0.0,82,-99.99,,,-99.99,,2013-02-10 00:32:00,
2013-02-09 17:42:00,34.0,29.0,-100.00,ENE,71,0.0,0.0,82,-99.99,,,-99.99,,2013-02-10 00:42:00,
2013-02-09 17:51:00,34.0,28.0,-100.00,North,1,0.0,0.0,78,-99.99,,,-99.99,,2013-02-10 00:51:00,
2013-02-09 18:01:00,34.0,28.0,-100.00,ENE,78,0.0,3.0,77,-99.99,,,-99.99,,2013-02-10 01:01:00,
2013-02-09 18:32:00,32.0,26.0,-100.00,North,352,5.0,9.0,78,-99.99,,,-99.99,,2013-02-10 01:32:00,
2013-02-09 18:42:00,32.0,26.0,-100.00,North,352,5.0,9.0,78,-99.99,,,-99.99,,2013-02-10 01:42:00,
2013-02-09 18:52:00,31.0,26.0,-100.00,ESE,111,6.0,9.0,80,-99.99,,,-99.99,,2013-02-10 01:52:00,
2013-02-09 19:01:00,31.0,26.0,-100.00,ESE,111,6.0,9.0,80,-99.99,,,-99.99,,2013-02-10 02:01:00,
2013-02-09 19:11:00,31.0,26.0,-100.00,ESE,111,6.0,9.0,80,-99.99,,,-99.99,,2013-02-10 02:11:00,
2013-02-09 19:22:00,31.0,26.0,-100.00,ESE,111,6.0,9.0,80,-99.99,,,-99.99,,2013-02-10 02:22:00,
2013-02-09 19:32:00,30.0,27.0,-100.00,NE,50,0.0,4.0,87,-99.99,,,-99.99,,2013-02-10 02:32:00,
2013-02-09 19:42:00,30.0,27.0,-100.00,NE,50,0.0,4.0,87,-99.99,,,-99.99,,2013-02-10 02:42:00,
2013-02-09 19:52:00,30.0,27.0,-100.00,NE,50,0.0,4.0,87,-99.99,,,-99.99,,2013-02-10 02:52:00,
2013-02-09 20:02:00,30.0,27.0,-100.00,NW,324,0.0,0.0,87,-99.99,,,-99.99,,2013-02-10 03:02:00,
2013-02-09 20:11:00,30.0,27.0,-100.00,NW,324,0.0,0.0,87,-99.99,,,-99.99,,2013-02-10 03:11:00,
2013-02-09 20:21:00,30.0,27.0,-100.00,NW,324,0.0,0.0,87,-99.99,,,-99.99,,2013-02-10 03:21:00,
2013-02-09 20:32:00,30.0,27.0,-100.00,NNE,30,0.0,0.0,89,-99.99,,,-99.99,,2013-02-10 03:32:00,
2013-02-09 20:41:00,30.0,27.0,-100.00,NNE,30,0.0,0.0,89,-99.99,,,-99.99,,2013-02-10 03:41:00,
2013-02-09 20:52:00,30.0,27.0,-100.00,NNE,30,0.0,0.0,89,-99.99,,,-99.99,,2013-02-10 03:52:00,
2013-02-09 21:01:00,29.0,27.0,-100.00,East,80,4.0,4.0,91,-99.99,,,-99.99,,2013-02-10 04:01:00,
2013-02-09 21:11:00,29.0,27.0,-100.00,East,80,4.0,4.0,91,-99.99,,,-99.99,,2013-02-10 04:11:00,
2013-02-09 21:21:00,29.0,27.0,-100.00,East,80,4.0,4.0,91,-99.99,,,-99.99,,2013-02-10 04:21:00,
2013-02-09 21:32:00,29.0,28.0,-100.00,NE,56,0.0,6.0,95,-99.99,,,-99.99,,2013-02-10 04:32:00,
2013-02-09 21:41:00,29.0,28.0,-100.00,NE,56,0.0,6.0,95,-99.99,,,-99.99,,2013-02-10 04:41:00,
2013-02-09 21:52:00,29.0,29.0,-100.00,North,357,3.0,7.0,98,-99.99,,,-99.99,,2013-02-10 04:52:00,
2013-02-09 22:01:00,29.0,29.0,-100.00,North,357,3.0,7.0,98,-99.99,,,-99.99,,2013-02-10 05:01:00,
2013-02-09 22:11:00,29.0,29.0,-100.00,North,357,3.0,7.0,98,-99.99,,,-99.99,,2013-02-10 05:11:00,
2013-02-09 22:22:00,29.0,29.0,-100.00,NE,36,0.0,5.0,100,-99.99,,,-99.99,,2013-02-10 05:22:00,
2013-02-09 22:31:00,29.0,29.0,-100.00,NW,326,7.0,9.0,100,-99.99,,,-99.99,,2013-02-10 05:31:00,
2013-02-09 22:41:00,29.0,29.0,-100.00,NW,326,7.0,9.0,100,-99.99,,,-99.99,,2013-02-10 05:41:00,
2013-02-09 22:52:00,29.0,29.0,-100.00,NE,46,0.0,5.0,100,-99.99,,,-99.99,,2013-02-10 05:52:00,
2013-02-09 23:01:00,29.0,29.0,-100.00,ESE,108,3.0,4.0,100,-99.99,,,-99.99,,2013-02-10 06:01:00,
2013-02-09 23:11:00,29.0,29.0,-100.00,ESE,108,3.0,4.0,100,-99.99,,,-99.99,,2013-02-10 06:11:00,
2013-02-09 23:21:00,29.0,29.0,-100.00,NE,42,3.0,6.0,100,-99.99,,,-99.99,,2013-02-10 06:21:00,
2013-02-09 23:32:00,29.0,29.0,-100.00,NE,42,3.0,6.0,100,-99.99,,,-99.99,,2013-02-10 06:32:00,
2013-02-09 23:42:00,29.0,29.0,-100.00,NE,42,3.0,6.0,100,-99.99,,,-99.99,,2013-02-10 06:42:00,
2013-02-09 23:51:00,29.0,29.0,-100.00,NNE,33,0.0,8.0,100,-99.99,,,-99.99,,2013-02-10 06:51:00,